Location: Volkssternwarte_EN
(51.3230°N, 7.4010°E)
Time: 15:38:21
(UTC+02:00)

N. Korean satellite - Pass Details

Date: 05 October 2021
Orbit: 450 x 495 km, 97.3° (Epoch: 23 October)

Event Time Altitude Azimuth Distance (km) Brightness Sun altitude
Rises 05:31:19 0° 33° (NNE) 2,562 11.1 -20.3°
Reaches altitude 10° 05:35:16 10° 78° (ENE) 1,685 10.5 -19.7°
Maximum altitude 05:35:51 10° 87° (E) 1,667 10.4 -19.6°
Drops below altitude 10° 05:36:25 10° 96° (E) 1,685 10.3 -19.5°
Sets 05:40:22 0° 140° (SE) 2,567 10.6 -18.9°
